User: anonymous
Location: Unspecified
(0.0000°N, 0.0000°E)
Time: 20:51:31
(UTC+02:00)
Language:

Cosmos 540 Rocket - Orbit

View from above orbital plane
View from above orbital plane
View from above satellite
View from above satellite

Ground track
Ground track

The orbit data is extracted from the following two-line orbital elements,

1 06324U 72104B   14244.81367929  .00000184  00000-0  63014-4 0  3365
2 06324 074.0782 194.6443 0010213 241.5452 142.6853 14.42964164188520
Epoch (UTC): 01 September 2014 19:31:41
Eccentricity: 0.0010213
inclination: 74.0782°
perigee height: 741 km
apogee height: 756 km
right ascension of ascending node: 194.6443°
argument of perigee: 241.5452°
revolutions per day: 14.42964164
mean anomaly at epoch: 142.6853°
orbit number at epoch: 18852

The dashed part of the orbit path shows where the satellite is in the earth's shadow,  

DLR